Flag for Belarus Weather past 2 weeks in Gomel, Belarus

Now
54 °F

Clear.


Feels Like: 53 °F
Forecast: 52 / 73 °F
Wind: 3 mph from North

Location: Gomel'

Current Time: Aug 23, 2014 at 3:16:16 AM

Latest Report: Aug 23, 2014 at 2:00 AM


Visibility: 10 mi

Pressure: 30.09 "Hg

Humidity: 88%

Dew point: 50 °F

Location of GomelLocation

Historic Weather in Gomel — Graph

°F

Gomel temperature yesterday

Maximum temperature yesterday: 68 °F (at 4:00 PM)
Minimum temperature yesterday: 54 °F (at 7:00 AM)
Average temperature yesterday: 61 °F

Past Weeks' High & Low Weather Summary

 TemperatureHumidityPressure
High91 °F (Aug 14, 4:00 PM)100% (Aug 13, 3:00 AM)30.21 "Hg (Aug 13, 3:00 AM)
Low52 °F (Aug 18, 5:00 AM)33% (Aug 8, 6:00 PM)29.74 "Hg (Aug 14, 4:00 PM)
Average71 °F67%29.91 "Hg
* Reported Aug 8 2:00 AM — Aug 23 2:00 AM, Gomel, Weather by CustomWeather, © 2014

Note: Actual official high and low records may vary slightly from our data, if they occured in-between our weather recording intervals... More about our weather records

Advertising

Gomel weather history for previous 24 hours

 ConditionsComfort  
Time TempWeatherWind HumidityBarometerVisibility
2:00 AM
Aug 23
54 °FClear.3 mph88%30.09 "Hg10 mi
1:00 AM54 °FClear.3 mph88%30.09 "Hg10 mi
12:00 AM54 °FClear.3 mph88%30.09 "Hg10 mi
11:00 PM
Aug 22
55 °FClear.3 mph82%30.09 "Hg10 mi
10:00 PM57 °FClear.3 mph77%30.09 "Hg10 mi
9:00 PM59 °FSunny.3 mph72%30.07 "Hg10 mi
8:00 PM64 °FSunny.3 mph56%30.04 "Hg10 mi
7:30 PM64 °FSunny.6 mph56%30.04 "Hg10 mi
7:00 PM64 °FSunny.8 mph56%30.04 "Hg10 mi
6:30 PM66 °FSunny.10 mph46%30.04 "Hg10 mi
6:00 PM66 °FPassing clouds.13 mph46%30.04 "HgN/A
5:30 PM68 °FScattered clouds.10 mph46%30.04 "HgN/A
5:00 PM68 °FScattered clouds.10 mph46%30.04 "HgN/A
4:30 PM68 °FScattered clouds.10 mph49%30.04 "HgN/A
4:00 PM68 °FScattered clouds.10 mph49%30.04 "HgN/A
3:30 PM66 °FScattered clouds.10 mph49%30.04 "HgN/A
3:00 PM66 °FScattered clouds.13 mph49%30.04 "HgN/A
2:30 PM64 °FScattered clouds.13 mph56%30.04 "HgN/A
2:00 PM64 °FPartly sunny.13 mph56%30.04 "HgN/A
1:30 PM63 °FPartly sunny.15 mph56%30.04 "HgN/A
1:00 PM63 °FPartly sunny.15 mph56%30.04 "HgN/A
12:30 PM61 °FScattered clouds.15 mph59%30.04 "HgN/A
12:00 PM61 °FPartly sunny.15 mph59%30.01 "HgN/A
11:30 AM59 °FPartly sunny.15 mph72%30.01 "HgN/A
11:00 AM59 °FPartly sunny.15 mph72%30.01 "HgN/A
10:30 AM57 °FPartly sunny.15 mph72%30.01 "HgN/A
10:00 AM57 °FScattered clouds.15 mph72%30.01 "HgN/A
9:30 AM55 °FOvercast.13 mph88%29.98 "HgN/A
9:00 AM55 °FOvercast.13 mph88%29.95 "HgN/A
8:30 AM54 °FPartly sunny.10 mph94%29.95 "HgN/A
8:00 AM54 °FOvercast.10 mph94%29.95 "HgN/A
7:30 AM54 °FOvercast.10 mph94%29.95 "HgN/A
7:00 AM54 °FOvercast.13 mph94%29.95 "HgN/A
6:30 AM57 °FOvercast.13 mph94%29.92 "HgN/A
6:00 AM57 °FOvercast.13 mph94%29.89 "HgN/A
5:00 AM59 °FOvercast.13 mph100%29.86 "HgN/A
4:00 AM61 °FOvercast.13 mph94%29.83 "HgN/A
3:00 AM64 °FSprinkles. Overcast.13 mph94%29.83 "HgN/A
Weather by CustomWeather, © 2014

See weather overviewHow to use our weather pages